Flag for Marshall Islands Weather past 2 weeks in Majuro, Marshall Islands

Now
82 °F

Cloudy.


Feels Like: 89 °F
Forecast: 81 / 85 °F
Wind: 6 mph from Northeast

Location: Majuro Atoll

Current Time: May 27, 2015 at 1:52:11 PM

Latest Report: May 27, 2015 at 12:51 PM


Visibility: 15 mi

Pressure: 29.86 "Hg

Humidity: 88%

Dew point: 78 °F

Location of MajuroLocation

Historic Weather in Majuro — Graph

°F

Majuro temperature yesterday

Maximum temperature yesterday: 87 °F (at 9:52 AM)
Minimum temperature yesterday: 81 °F (at 7:52 PM)
Average temperature yesterday: 83 °F

Past Weeks' High & Low Weather Summary

 TemperatureHumidityPressure
High87 °F (May 25, 1:55 PM)95% (May 19, 3:51 AM)29.95 "Hg (May 19, 3:51 AM)
Low76 °F (May 19, 3:51 AM)72% (May 20, 2:53 PM)29.75 "Hg (May 12, 3:52 PM)
Average83 °F84%29.85 "Hg
* Reported May 12 11:50 AM — May 27 11:52 AM, Majuro, Weather by CustomWeather, © 2015

Note: Actual official high and low records may vary slightly from our data, if they occured in-between our weather recording intervals... More about our weather records

Advertising

Majuro weather history for previous 24 hours

 ConditionsComfort  
Time TempWeatherWind HumidityBarometerVisibility
11:52 AM
Wed, May 27
80 °FCloudy.6 mph90%29.85 "Hg15 mi
10:53 AM79 °FSprinkles. Cloudy.3 mph94%29.89 "Hg14 mi
9:52 AM79 °FSprinkles. Cloudy.7 mph89%29.90 "Hg12 mi
8:51 AM82 °FCloudy.3 mph85%29.88 "Hg15 mi
7:52 AM81 °FCloudy.9 mph85%29.88 "Hg15 mi
6:57 AM82 °FMostly cloudy.No wind88%29.85 "Hg15 mi
5:54 AM81 °FMostly cloudy.3 mph87%29.83 "Hg15 mi
4:50 AM81 °FOvercast.5 mph87%29.81 "Hg15 mi
3:53 AM80 °FOvercast.No wind89%29.81 "Hg15 mi
2:54 AM80 °FOvercast.5 mph90%29.82 "Hg15 mi
1:53 AM79 °FOvercast.7 mph91%29.83 "Hg15 mi
12:54 AM81 °FMostly cloudy.6 mph87%29.85 "Hg15 mi
11:52 PM
Tue, May 26
81 °FMostly cloudy.3 mph87%29.87 "Hg15 mi
10:51 PM81 °FMostly cloudy.3 mph86%29.86 "Hg15 mi
9:50 PM81 °FOvercast.3 mph88%29.87 "Hg15 mi
8:52 PM81 °FOvercast.7 mph87%29.87 "Hg15 mi
7:52 PM81 °FOvercast.6 mph89%29.85 "Hg15 mi
6:50 PM81 °FCloudy.6 mph90%29.83 "Hg15 mi
5:52 PM81 °FSprinkles. Cloudy.6 mph90%29.84 "Hg8 mi
4:50 PM81 °FSprinkles. Cloudy.No wind90%29.83 "Hg8 mi
3:51 PM81 °FSprinkles. Cloudy.No wind89%29.83 "Hg8 mi
2:50 PM81 °FSprinkles. Cloudy.9 mph88%29.85 "Hg15 mi
1:50 PM86 °FCloudy.10 mph78%29.85 "Hg15 mi
Weather by CustomWeather, © 2015

See weather overviewHow to use our weather pages